User: anonymous   Login
Location: Dallas
(32.7833°N, 96.8000°W)
Time: 11:21:49
(UTC-06:00)
Language:

N. Korean satellite - Orbit

View from above orbital plane
View from above orbital plane
View from above satellite
View from above satellite

Ground track
Ground track

The orbit data is extracted from the following two-line orbital elements,

1 39026U 12072A   19324.21671484  .00001372  00000-0  51715-4 0  9990
2 39026  97.2159 322.4311 0035938 272.1390  87.5735 15.28181883385199
Epoch (UTC): 20 November 2019 05:12:04
Eccentricity: 0.0035938
inclination: 97.2159°
perigee height: 456 km
apogee height: 506 km
right ascension of ascending node: 322.4311°
argument of perigee: 272.1390°
revolutions per day: 15.28181883
mean anomaly at epoch: 87.5735°
orbit number at epoch: 38519

The dashed part of the orbit path shows where the satellite is in the earth's shadow,  

DLR